Regional Weather Roundup
Issued by NWS

Home | Current Version | Previous Version | Graphics & Text | Print | Product List | Glossary On
Versions: 1 2 3 4 5 6 7 8 9 10 11 12 13 14 15 16 17 18 19 20 21 22 23 24 25 26 27 28 29 30 31 32 33 34 35 36 37 38 39 40 41 42 43 44 45 46 47 48 49 50
000
ASUS43 KOAX 241910
RWRNE

WEATHER ROUNDUP FOR NEBRASKA
NATIONAL WEATHER SERVICE OMAHA NE
200 PM CDT THU MAY 24 2018

NOTES: SATELLITE DATA IS BEING USED TO AUGMENT CLOUD COVER ABOVE
       12000 FEET.
       "FAIR" INDICATES FEW OR NO CLOUDS BELOW 12,000 FEET WITH NO
       SIGNIFICANT WEATHER AND/OR OBSTRUCTIONS TO VISIBILITY.


NEZ001>004-019>022-054>056-242000-
NEBRASKA PANHANDLE

CITY           SKY/WX    TMP DP  RH WIND       PRES   REMARKS
SCOTTSBLUFF    SUNNY     82  48  30 W13       30.02F
ALLIANCE       SUNNY     81  49  32 W17       30.00F
CHADRON        SUNNY     80  51  36 W14       29.96F
GORDON         FAIR      81  49  33 W9G18     29.97F
KIMBALL        SUNNY     79  42  26 CALM      30.08S
SIDNEY         SUNNY     81  45  28 NW9G17    30.05F
$$

NEZ057>060-069>072-079>082-242000-
SOUTHWEST NEBRASKA

CITY           SKY/WX    TMP DP  RH WIND       PRES   REMARKS
NORTH PLATTE   MOSUNNY   81  65  58 NW6       29.97S
IMPERIAL       SUNNY     83  56  39 NE7       29.99S
LEXINGTON      PTSUNNY   82  62  50 SW13G18   29.96S
MCCOOK         MOSUNNY   83  63  50 S5        29.95F
OGALLALA       SUNNY     83  63  50 CALM      30.00S
$$

NEZ005>010-023>029-035>040-094-242000-
NORTH CENTRAL NEBRASKA

CITY           SKY/WX    TMP DP  RH WIND       PRES   REMARKS
VALENTINE      SUNNY     84  63  49 SW8G17    29.92F
AINSWORTH      MOSUNNY   79  66  64 S13       29.95F
BROKEN BOW     PTSUNNY   80  63  55 S16       29.96F
O`NEILL        PTSUNNY   82  64  53 S15G22    29.93S
ORD            PTSUNNY   82  62  50 S16       29.95S
THEDFORD       PTSUNNY   77  62  59 S9        29.98F
$$

NEZ041-046>049-061>064-073>077-083>087-242000-
SOUTH CENTRAL NEBRASKA

CITY           SKY/WX    TMP DP  RH WIND       PRES   REMARKS
GRAND ISLAND   SUNNY     85  61  44 S20G30    29.97F
AURORA         SUNNY     85  57  38 S16G30    29.97F
HASTINGS       SUNNY     83  60  45 S17G31    29.98F
HEBRON         CLOUDY    87  55  32 S15       30.00S
HOLDREGE       MOSUNNY   82  61  49 S18G25    29.97F
KEARNEY        SUNNY     83  61  47 S21G26    29.96F
YORK           CLOUDY    88  59  37 S14G26    29.97F
$$

NEZ011>018-030>034-042>045-242000-
NORTHEAST NEBRASKA

CITY           SKY/WX    TMP DP  RH WIND       PRES   REMARKS
NORFOLK        SUNNY     87  63  44 S16G29    29.93F
ALBION         SUNNY     85  62  45 S15G25    29.96F
BLAIR          SUNNY     87  64  46 SE16      29.98F
COLUMBUS       SUNNY     91  59  33 S18G28    29.95F HX  90
FREMONT        SUNNY     90  60  36 SE18G24   29.97F
TEKAMAH        SUNNY     86  68  54 S17G25    29.95F
WAYNE          SUNNY     85  62  45 S22G28    29.94F
$$

NEZ050>053-065>068-078-088>093-242000-
SOUTHEAST NEBRASKA

CITY           SKY/WX    TMP DP  RH WIND       PRES   REMARKS
LINCOLN        CLOUDY    87  59  38 S20G26    29.97F
OMAHA EPPLEY   PTSUNNY   89  61  38 S16G24    29.97F
BEATRICE       MOSUNNY   88  67  49 SE16G22   29.99S HX  90
FALLS CITY     PTSUNNY   86  68  54 S13G23    30.01F
NEBRASKA CITY  PTSUNNY   86  68  55 S16G23    30.00F
PLATTSMOUTH    SUNNY     87  67  49 SE14G20   29.99F HX  90
$$

NEZ044-045-051>053-067-242000-
OMAHA AREA

CITY           SKY/WX    TMP DP  RH WIND       PRES   REMARKS
OMAHA EPPLEY   PTSUNNY   89  61  38 S16G24    29.97F
BLAIR          SUNNY     87  64  46 SE16      29.98F
FREMONT        SUNNY     90  60  36 SE18G24   29.97F
MILLARD        MOSUNNY   89  64  44 S12G21    29.97S HX  90
OFFUTT AFB     SUNNY     87  66  49 S16G23    29.97F
PLATTSMOUTH    SUNNY     87  67  49 SE14G20   29.99F HX  90
WAHOO          FAIR      91  52  26 S17G29    29.97F
$$




USA.gov is the U.S. government's official web portal to all federal, state and local government web resources and services.